STARLINK-2495, 48325

Orbit data source: Space-Track

STARLINK-2495, 48325 is a payload satellite owned by SpaceX/Seattle (US) in LEO that was launched on Thu, 29 Apr 2021 UTC via an FALCON 9 launch vehicle from the Air Force Eastern Test Range (AFETR). Payload-class satellites include a variety of spacecraft equipped with specific instruments for various scientific and technological missions. These include communications satellites like Starlink; space stations such as the ISS; scientific satellites like the Hubble; Earth observation satellites from companies like Planet Labs, Umbra, and HawkEye 360; GPS; miniature CubeSats for education and research; and military/defense satellites.

Loading next visibility...
Identifier
48325, 2021-036BB
Orbit
LEO
Country
Flag of USUS
Related business
Manufacturer
SpaceX/Seattle
Mission
Operational Commercial Communications
Bus & Motor
STARLINK, Unknown motor
Mass
260 kg wet, ~248 kg dry
Launch date (UTC)
2021-04-29 (5 years ago)
Launch vehicle
FALCON 9
Launch site
Air Force Eastern Test Range (AFETR)
Object type
Payload
Rocket body
Debris
Shape & HBR
Box + 1 Pan, 10.1 m
Radar Cross Section
13.562 m², Large (>1 m²)

Expand to show TLE details & history
Last TLE update: 16 hours ago

TLE from 16 hours ago
0 STARLINK-2495
1 48325U 21036BB  25341.80942033  .00007554  00000-0  52518-3 0  9993
2 48325  53.0537 154.0824 0001509  96.9125 263.2036 15.06422952254186
Epoch: 2025-12-07T19:25Z
TLE epoch observation values (Epoch: 2025-12-07T19:25:33.916Z)
Latitude
Longitude
145.87361°
Altitude
548.144 km
Speed
7.589 km/s
True Right ascension
10h 16m 19s
True Declination
0° 00' 00"
Sunlit
Object was in daylight at epoch
Visualization orbit readout
Latitude
Unknown
Longitude
Unknown
Altitude
Unknown
Speed
Unknown
Apparent Right ascension
Unknown
Apparent Declination
Unknown
Sunlit
N/A
Visualization observer readout
Local Sidereal Time
09:48:26
Azimuth
Unknown
Elevation
Unknown
Doppler factor
Unknown
Orbital elements
Apogee altitude
548.457 km
Perigee altitude
546.367 km
Semi-major axis
6,925.549 km
Eccentricity
0.00015
Inclination
53.0537°
RAAN
154.0824°
Arg. of periapsis
96.9125°
True anomaly
263.18643°
Mean anomaly
263.2036°
Eccentric anomaly
263.19501°
Mean motion
3.76584 °/min
Orbital period
95.6 mins
BSTAR
0.00052518
Loading maneuver chart data...
Computing Atmospheric mass density...
Loading historical data...
Loading historical data...
Loading historical data...
Loading historical data...
Loading historical data...
Loading historical data...
Loading historical data...

Documentation

Showing up to 5 results
|